Twin Falls, ID

9:42 AM MDT on July 22, 2017 (GMT -0600)
Joslin Field-Magic Valley Regional

Weather History for KTWF - November, 2012

Change the Weather History Date:

Friday, November 9, 2012

  Actual Average Record
Temperature  
Mean Temperature 34 °F -  
Max Temperature 40 °F 52 °F 72 °F (2014)
Min Temperature 28 °F 29 °F 15 °F (2011)
Degree Days  
Heating Degree Days 31 24  
Month to date heating degree days 125 203  
Since 1 July heating degree days 557 822  
Cooling Degree Days 0 0  
Month to date cooling degree days 0 0  
Year to date cooling degree days 970 680  
Moisture  
Dew Point 28 °F    
Average Humidity 74    
Maximum Humidity 89    
Minimum Humidity 59    
Precipitation  
Precipitation T in 0.03 in 0.17 in (2002)
Month to date precipitation 0.08 0.34  
Year to date precipitation 7.46 8.59  
Sea Level Pressure  
Sea Level Pressure 29.68 in    
Wind  
Wind Speed 7 mph (WSW)    
Max Wind Speed 16 mph    
Max Gust Speed 20 mph    
Visibility 9 miles    
Events Snow    
T = Trace of Precipitation, MM = Missing Value Source: NWS Daily Summary

Daily Weather History Graph

Daily Weather History Graph

Search for Another Location

Airport or City:

Trip Planner

Search our weather history database for the weather conditions in past years. The results will help you decide how hot, cold, wet, or windy it might be!

Date:

Astronomy

Nov. 09, 2012 Rise Set
Actual Time 7:22 AM MST 5:20 PM MST
Civil Twilight 6:52 AM MST 5:50 PM MST
Nautical Twilight 6:18 AM MST 6:24 PM MST
Astronomical Twilight 5:45 AM MST 6:57 PM MST
Moon 2:19 AM MST (11/9) 2:41 PM MST (11/9)
Length of Visible Light 10h 58m
Length of Day
9h 58m
Waning Crescent, 22% of the Moon is Illuminated
Nov 9
Waning Crescent
Nov 13
New
Nov 20
First Quarter
Nov 28
Full
Dec 6
Last Quarter

Hourly Weather History & Observations

Time (MST) Temp. Windchill Dew Point Humidity Pressure Visibility Wind Dir Wind Speed Gust Speed Precip Events Conditions
12:53 AM 39.0 °F 34.0 °F 30.9 °F 73% 29.59 in 10.0 mi SSW 6.9 mph - N/A   Overcast
1:53 AM 39.0 °F 33.4 °F 30.9 °F 73% 29.56 in 10.0 mi SSW 8.1 mph - N/A   Overcast
2:53 AM 39.0 °F 33.4 °F 30.9 °F 73% 29.57 in 10.0 mi SW 8.1 mph - N/A   Overcast
3:53 AM 37.9 °F - 30.9 °F 76% 29.58 in 10.0 mi Calm Calm - N/A   Overcast
4:53 AM 37.9 °F - 30.9 °F 76% 29.60 in 10.0 mi Calm Calm - N/A   Overcast
5:53 AM 37.0 °F 31.6 °F 30.9 °F 79% 29.65 in 10.0 mi West 6.9 mph - N/A   Overcast
6:53 AM 35.1 °F 32.2 °F 30.0 °F 82% 29.64 in 10.0 mi SW 3.5 mph - 0.00 in   Overcast
7:53 AM 34.0 °F 28.8 °F 30.0 °F 85% 29.68 in 9.0 mi SW 5.8 mph - N/A   Overcast
8:53 AM 35.1 °F 29.3 °F 28.0 °F 76% 29.70 in 10.0 mi WSW 6.9 mph - N/A   Mostly Cloudy
9:53 AM 36.0 °F 31.1 °F 28.9 °F 76% 29.72 in 9.0 mi West 5.8 mph - 0.00 in Snow Light Snow
10:16 AM 37.4 °F 30.8 °F 28.4 °F 70% 29.73 in 9.0 mi West 9.2 mph - 0.00 in Snow Light Snow
10:31 AM 37.4 °F 30.8 °F 28.4 °F 70% 29.73 in 9.0 mi West 9.2 mph - 0.00 in   Overcast
10:53 AM 37.0 °F 31.0 °F 30.0 °F 76% 29.72 in 10.0 mi West 8.1 mph - 0.00 in   Mostly Cloudy
11:53 AM 39.0 °F 32.8 °F 28.0 °F 65% 29.70 in 10.0 mi WSW 9.2 mph - N/A   Mostly Cloudy
12:53 PM 39.0 °F 34.8 °F 28.0 °F 65% 29.68 in 10.0 mi NW 5.8 mph - N/A   Mostly Cloudy
1:53 PM 39.0 °F 32.8 °F 27.0 °F 62% 29.65 in 10.0 mi WNW 9.2 mph - N/A   Mostly Cloudy
2:53 PM 39.0 °F 34.0 °F 26.1 °F 60% 29.65 in 10.0 mi WNW 6.9 mph - N/A   Mostly Cloudy
3:53 PM 37.9 °F 30.5 °F 25.0 °F 60% 29.66 in 9.0 mi West 11.5 mph - 0.00 in Snow Light Snow
4:16 PM 37.4 °F 28.2 °F 26.6 °F 65% 29.69 in 9.0 mi West 16.1 mph 19.6 mph 0.00 in   Overcast
4:28 PM 33.8 °F 24.8 °F 26.6 °F 75% 29.68 in 9.0 mi WSW 12.7 mph - 0.00 in   Overcast
4:53 PM 35.1 °F 30.1 °F 27.0 °F 72% 29.67 in 9.0 mi WSW 5.8 mph - 0.00 in   Overcast
5:41 PM 33.8 °F 27.7 °F 26.6 °F 75% 29.70 in 9.0 mi South 6.9 mph - N/A   Overcast
5:53 PM 33.1 °F 27.7 °F 27.0 °F 78% 29.70 in 9.0 mi SSW 5.8 mph - N/A   Overcast
6:53 PM 34.0 °F 28.0 °F 27.0 °F 75% 29.71 in 9.0 mi SW 6.9 mph - N/A   Overcast
7:41 PM 32.0 °F 26.4 °F 24.8 °F 75% 29.71 in 9.0 mi SW 5.8 mph - N/A   Scattered Clouds
7:53 PM 30.9 °F 24.3 °F 24.1 °F 76% 29.72 in 9.0 mi SW 6.9 mph - N/A   Clear
8:53 PM 30.9 °F 22.8 °F 25.0 °F 79% 29.72 in 9.0 mi SSW 9.2 mph - N/A   Partly Cloudy
9:53 PM 30.0 °F 22.4 °F 25.0 °F 82% 29.73 in 9.0 mi South 8.1 mph - N/A   Partly Cloudy
10:53 PM 28.9 °F 20.4 °F 23.0 °F 78% 29.73 in 9.0 mi South 9.2 mph - N/A   Clear
11:53 PM 28.0 °F 18.6 °F 21.9 °F 78% 29.72 in 9.0 mi SSW 10.4 mph - N/A   Clear